Regional Weather Roundup
Issued by NWS

Home | Current Version | Previous Version | Graphics & Text | Print | Product List | Glossary On
Versions: 1 2 3 4 5 6 7 8 9 10 11 12 13 14 15 16 17 18 19 20 21 22 23 24 25 26 27 28 29 30 31 32 33 34 35 36 37 38 39 40 41 42 43 44 45
000
ASUS45 KBOU 251810
RWRCO

WEATHER ROUNDUP FOR COLORADO
NATIONAL WEATHER SERVICE PUEBLO CO
1200 PM MDT WED APR 25 2018

NOTE: "FAIR" INDICATES FEW OR NO CLOUDS BELOW 12000 FEET WITH NO
SIGNIFICANT WEATHER AND/OR OBSTRUCTIONS TO VISIBILITY.

COZ001>005-013-030-031-251900-
...NORTHWEST COLORADO...

CITY           SKY/WX    TMP DP  RH WIND       PRES   REMARKS
CRAIG          SUNNY     51  23  33 VRB3      30.32F
HAYDEN         SUNNY     49  14  24 CALM      30.34F
MEEKER         SUNNY     53  14  21 CALM      30.31F
RABBIT EARS PA NOT AVBL
STEAMBOAT SPGS FAIR      48  17  28 CALM      30.32F
WALDEN         FAIR      48  14  25 S7        30.35F
$$

COZ006>008-011-251900-
...WEST CENTRAL VALLEYS...

CITY           SKY/WX    TMP DP  RH WIND       PRES   REMARKS
GRAND JUNCTION SUNNY     57  19  22 SE9       30.28F
MONTROSE       SUNNY     54  18  24 VRB6      30.30F
EAGLE          SUNNY     50  14  23 S3        30.35F
RIFLE          SUNNY     55  24  30 VRB3      30.29F
DELTA          NOT AVBL
NUCLA          FAIR      61   9  12 NW7       30.29F
$$

COZ017>023-064>068-251900-
...SOUTHWEST COLORADO...

CITY           SKY/WX    TMP DP  RH WIND       PRES   REMARKS
DURANGO        SUNNY     63  16  16 VRB6      30.24F
CORTEZ         SUNNY     67   5   8 SW14      30.23F
PAGOSA SPRINGS FAIR      61  -9   5 CALM      30.28F
TELLURIDE      SUNNY     56  -7   7 E5        30.34F
WOLF CREEK PAS SUNNY     37  -6  15 CALM      30.51S
$$

COZ009-010-012-014-032>034-037-058>063-251900-
...CENTRAL COLORADO...

CITY           SKY/WX    TMP DP  RH WIND       PRES   REMARKS
ASPEN          SUNNY     54  10  17 N8        30.30F
BUENA VISTA    FAIR      48  21  34 CALM      30.33F
COPPER MTN     NOT AVBL
BERTHOUD PASS  FAIR      28  18  64 NW14      30.45R WCI  17
COTTONWOOD PAS SUNNY     52  28  40 SE9       30.38F
GUNNISON       SUNNY     52   8  17 CALM      30.33F
KREMMLING      SUNNY     54  21  28 CALM      30.36F
LEADVILLE      SUNNY     44   0  16 W5        30.36F
MONARCH PASS   SUNNY     36  -4  18 NE3       30.56R
SALIDA         FAIR      51  17  26 NE3       30.40F
SUNLIGHT       SUNNY     39   5  24 CALM      30.46S
WILKERSON PASS SUNNY     34   5  29 CALM      30.45S
$$

COZ069>075-251900-
...SAN LUIS VALLEY/SANGRE DE CRISTO MOUNTAINS...

CITY           SKY/WX    TMP DP  RH WIND       PRES   REMARKS
ALAMOSA        SUNNY     52   6  15 NW3       30.32F
DEL NORTE      FAIR      55  10  17 E6        30.33F
LA VETA PASS   SUNNY     43  28  56 N9        30.51S
SAGUACHE       NOT AVBL
$$

COZ035-036-038>040-251900-
...NORTHERN COLORADO FRONT RANGE...

CITY           SKY/WX    TMP DP  RH WIND       PRES   REMARKS
DENVER INTL AP SUNNY     52  28  39 W5        30.27F
DMNS CITY PARK NOT AVBL
AURORA         SUNNY     51  23  32 NW3       30.27F
FRONT RANGE AP SUNNY     52  27  37 CALM      30.28F
ERIE MUNI ARPT FAIR      53  26  34 CALM      30.32F
BOULDER MUN AP FAIR      54  32  43 SE7       30.25F
CENTENNIAL     SUNNY     50  24  36 CALM      30.27F
BROOMFIELD     SUNNY     54  27  35 S6        30.27F
LOVELAND       SUNNY     51  33  50 S10G17    30.26F
LONGMONT         N/A     55  34  44 S6        30.28F
$$

COZ041-046-047-076>085-087-088-251900-
...PIKES PEAK/PALMER DIVIDE AND SOUTHERN FOOTHILLS...

CITY           SKY/WX    TMP DP  RH WIND       PRES   REMARKS
COLO. SPRINGS  MOSUNNY   47  30  51 CALM      30.30F
A. F. ACADEMY  SUNNY     51  29  43 S5        30.28F
SCHRIEVER AFB  NOT AVBL
CHEYENNE MTN   NOT AVBL
ELLICOTT         N/A    N/A N/A N/A W8        30.29F
FALCON         FAIR      50  29  45 S6        30.31F
FORT CARSON    SUNNY     49  29  45 SE6       30.28F
LIMON          SUNNY     48  27  44 NW8       30.28F
MONUMENT HILL  SUNNY     45  25  45 NW8       30.31F
CANON CITY     FAIR      54  34  47 S5        30.28F
WALSENBURG     FAIR      48  37  66 CALM      30.30F
TRINIDAD       SUNNY     51  30  44 CALM      30.31F
$$

COZ042>045-048>051-090-091-251900-
...NORTHEAST COLORADO...

CITY           SKY/WX    TMP DP  RH WIND       PRES   REMARKS
GREELEY ARPT   SUNNY     53  30  41 W6        30.27F
AKRON          SUNNY     50  30  46 W12       30.26F
BURLINGTON     SUNNY     50  29  44 NW14G23   30.28F
WRAY           FAIR      52  28  40 NW13      30.27F
YUMA           NOT AVBL
STERLING       NOT AVBL
HOLYOKE        FAIR      54  28  37 W8        30.27F
FORT MORGAN    FAIR      54  23  30 NW7       30.27F
$$

COZ086-089-092>099-251900-
...SOUTHEAST COLORADO...

CITY           SKY/WX    TMP DP  RH WIND       PRES   REMARKS
PUEBLO         SUNNY     52  36  54 VRB3      30.29F
LA JUNTA       MOSUNNY   52  34  50 W12       30.30F
LAMAR          MOSUNNY   53  32  44 NW12G20   30.28F
SPRINGFIELD      N/A     50  30  46 N17G31    30.29F
$$





USA.gov is the U.S. government's official web portal to all federal, state and local government web resources and services.